Theta_e
307 301 298 297 299 301 301 302 301 301 301 299 299 298 297 297 298 300 299 299 300 298 298 299 300 300 301 303 304 306 306 306 306 306 306 307 307 307 308 308 309 310 311 320 318 316 314 313 312 311 311 312 313 314 315 316 318 318 319 319 318 319 319 318 318 319 318 317 318 319 319 317 319 321 324 324 325 325 326 327 328 328 328 329 328 328
305 298 299 301 302 302 302 303 302 301 300 298 298 298 296 299 295 300 299 299 300 298 298 300 300 300 301 302 304 305 305 304 305 305 306 306 307 308 308 309 310 311 315 321 316 314 313 312 312 311 310 310 311 312 313 314 316 318 318 318 318 318 318 318 318 319 318 318 317 317 317 317 319 320 321 321 322 323 324 325 326 327 328 329 327 325
299 296 300 302 303 303 302 302 301 300 299 299 297 298 297 297 300 300 299 299 300 298 296 299 298 298 300 302 304 304 304 305 306 307 307 306 307 307 308 309 310 311 313 315 314 314 312 313 311 310 310 310 311 312 312 313 315 316 317 318 318 318 317 318 319 318 317 317 318 318 319 318 318 321 323 323 323 322 321 322 322 323 323 325 326 324
295 298 301 302 303 301 300 300 300 300 300 298 298 296 295 300 295 293 297 299 298 297 296 298 296 298 301 303 303 305 305 306 307 308 308 309 308 308 308 309 310 311 312 312 313 313 311 312 310 309 309 309 310 311 311 312 313 315 316 317 317 317 318 318 318 317 318 318 318 319 320 320 319 317 314 314 317 319 319 318 318 319 319 322 323 323
296 299 298 301 301 300 298 299 298 297 296 300 299 298 296 298 298 296 296 297 299 299 298 297 297 297 300 300 302 306 308 307 308 308 308 309 310 311 313 313 313 311 311 312 313 313 311 310 309 309 309 309 309 310 311 312 313 314 315 317 317 317 317 318 318 317 318 318 317 317 314 315 312 312 312 312 312 314 314 317 314 314 315 318 319 321
298 299 301 299 300 299 299 297 298 299 295 297 301 299 298 298 297 297 298 297 295 295 298 298 291 292 299 301 302 305 305 303 305 305 306 308 309 310 309 310 312 313 313 312 311 312 313 310 310 309 309 309 309 309 311 312 313 314 315 316 317 317 317 317 318 318 317 316 315 311 310 310 311 310 309 309 310 310 312 314 314 311 313 315 316 318
299 298 300 299 299 299 299 297 300 299 296 294 296 300 300 299 298 297 296 297 290 289 297 298 290 288 296 296 299 301 302 303 306 306 306 307 307 308 310 311 311 312 313 314 313 312 312 312 310 309 309 309 309 309 311 312 313 314 315 316 316 316 316 317 317 317 316 315 314 313 312 311 311 311 311 313 315 314 312 312 310 311 310 311 313 315
298 298 299 301 299 299 298 295 300 299 296 293 298 299 298 297 297 298 297 297 294 299 300 295 296 289 290 295 300 303 301 301 302 303 305 306 308 308 309 310 311 312 312 313 312 312 311 311 310 309 309 309 309 310 310 311 312 312 314 315 315 315 316 316 317 316 315 314 314 312 312 312 312 314 314 314 315 314 312 311 309 308 307 308 310 311
299 297 298 298 299 298 297 300 303 301 297 297 298 301 300 298 300 299 298 296 297 293 289 295 298 290 290 296 301 301 299 300 301 302 304 306 308 308 310 311 311 311 311 311 312 311 310 310 310 309 309 310 309 310 309 310 311 312 313 314 314 315 315 315 316 315 315 313 313 313 312 312 314 315 316 316 315 312 311 311 307 305 306 306 306 308
298 300 300 301 299 296 299 297 300 300 297 297 300 301 300 301 300 300 297 297 295 292 288 293 296 288 289 296 297 301 300 299 301 303 303 305 308 308 308 309 309 308 309 310 309 309 310 310 309 309 309 309 309 310 311 310 311 312 312 313 313 313 314 314 315 314 314 313 312 312 312 312 313 314 316 316 313 313 310 309 306 305 304 304 304 304
298 299 299 300 299 300 297 298 299 299 300 301 303 301 300 300 299 298 298 295 292 287 289 296 296 293 285 294 296 296 299 301 301 302 304 306 308 308 309 311 312 309 310 311 310 309 309 308 307 306 306 307 308 309 309 310 310 311 311 312 312 312 314 314 314 313 312 312 312 311 312 313 313 314 315 314 312 311 309 309 308 304 303 303 302 302
298 298 298 300 298 300 301 298 300 300 302 303 300 297 297 295 297 294 293 294 286 284 290 292 294 296 285 292 297 301 301 301 301 302 303 304 307 309 310 308 308 308 309 309 309 309 308 306 305 305 305 305 306 307 307 308 309 310 311 311 311 312 312 313 313 312 311 311 311 311 312 312 313 315 312 311 310 309 308 308 306 304 303 302 301 300
296 297 301 298 299 299 299 298 296 300 301 300 298 296 289 287 288 285 289 285 285 284 289 290 292 290 289 294 297 301 302 303 304 304 304 305 306 309 310 309 309 310 309 309 310 310 310 310 308 305 305 305 305 305 306 307 308 309 310 310 310 310 311 312 312 311 311 310 310 311 311 312 313 313 311 309 309 311 307 307 305 303 302 301 302 300
294 300 298 299 298 299 301 294 293 292 296 296 294 292 287 283 283 281 285 288 287 288 289 291 295 287 293 296 300 300 302 303 304 305 306 306 305 306 310 311 309 310 310 310 310 311 311 311 312 310 308 306 306 306 306 306 307 309 309 310 309 310 311 311 312 311 310 310 310 311 311 311 312 312 311 309 308 307 307 307 306 304 302 303 304 301
286 288 294 297 293 300 299 298 298 296 295 296 300 296 290 288 284 281 284 282 284 286 287 291 286 286 287 292 300 302 304 305 305 304 305 306 307 309 311 312 311 310 310 311 310 310 310 311 311 310 309 308 307 306 306 306 307 308 308 308 308 309 310 311 311 310 309 310 310 310 311 311 311 311 310 309 308 307 306 306 305 305 305 303 304 303
290 290 299 300 301 300 298 301 302 299 297 299 300 301 293 289 294 285 287 286 286 286 286 285 286 293 294 301 302 303 303 303 303 303 304 304 305 306 306 307 308 308 308 309 310 311 311 311 310 309 308 307 307 306 306 306 307 307 308 308 308 309 310 310 310 309 309 309 309 309 309 309 310 310 309 308 308 307 306 306 306 306 305 304 304 303
292 288 297 299 299 298 299 301 300 303 287 296 297 291 294 299 296 289 286 288 285 284 283 290 290 293 298 298 300 301 300 301 302 302 302 304 306 307 307 308 308 309 309 309 310 310 311 310 308 307 307 306 306 306 306 306 307 307 308 308 308 308 309 310 310 309 309 308 308 308 308 308 309 309 307 307 308 307 305 306 306 306 306 306 305 303
289 290 292 297 293 297 297 300 301 299 303 298 290 295 300 302 300 292 284 287 284 281 283 289 286 288 289 286 300 299 299 300 301 301 303 303 305 306 308 310 313 311 311 311 311 312 311 310 308 306 306 306 306 306 306 306 307 308 308 308 308 308 308 309 310 309 308 308 308 308 308 308 308 309 307 308 308 307 305 305 305 305 305 304 303 301
297 287 292 294 297 297 298 299 297 302 300 298 295 304 293 287 285 291 287 280 280 281 283 287 288 289 291 290 295 297 296 298 300 303 303 303 304 305 306 308 311 310 312 311 310 310 310 309 308 306 305 305 305 305 306 306 307 308 308 308 308 308 308 309 310 309 309 308 308 308 308 307 307 308 307 307 307 306 304 304 304 304 304 303 302 299
298 287 290 291 294 297 297 296 288 293 299 300 301 297 302 295 290 287 287 287 286 281 282 283 287 285 294 294 296 297 298 299 300 300 301 301 303 304 307 310 310 310 312 313 311 312 313 312 309 307 305 304 304 304 305 306 306 306 307 307 308 308 309 309 309 308 307 308 307 307 307 307 307 307 306 306 305 303 303 304 303 302 301 301 300 297
293 294 285 291 294 295 289 294 291 294 290 291 292 292 294 292 297 294 295 288 286 283 283 283 282 287 295 299 298 298 300 300 300 301 303 303 305 307 308 309 311 311 311 313 315 313 314 311 308 306 305 305 304 304 304 305 305 306 307 307 307 307 308 308 308 308 307 307 306 306 305 306 306 304 304 303 303 302 302 302 300 300 299 297 296 296
290 291 286 290 289 289 292 298 297 298 297 294 292 290 293 290 288 285 283 294 289 287 283 283 281 289 296 301 300 299 300 300 304 304 305 306 306 308 311 311 310 311 311 311 312 313 313 309 306 305 304 303 303 302 302 303 304 305 305 306 307 307 308 307 307 307 307 306 306 305 305 305 305 304 302 302 301 301 300 300 299 298 296 295 295 294
297 296 290 288 290 291 295 296 296 295 298 298 296 293 296 295 293 288 282 286 288 289 290 287 285 287 298 301 301 300 301 302 302 304 304 305 306 308 309 311 312 311 311 311 311 310 310 308 306 304 303 302 302 302 302 302 302 303 304 305 306 306 306 307 308 308 307 306 305 304 304 304 303 301 301 301 300 300 299 298 296 295 295 294 293 292
295 290 288 289 294 295 294 297 297 297 297 296 297 299 297 293 294 291 290 291 288 289 286 286 283 287 297 301 301 301 300 301 302 302 303 304 307 308 308 310 311 310 309 308 308 307 306 305 304 302 301 301 301 301 301 301 302 303 303 304 305 305 305 306 307 307 306 305 304 304 303 303 303 300 300 300 301 301 299 297 294 293 293 293 291 290
289 289 289 286 286 288 291 293 293 297 295 293 294 296 297 298 297 293 289 290 287 288 289 286 281 287 297 302 301 297 301 300 301 303 304 305 306 308 309 309 310 310 310 309 308 307 306 304 302 302 303 302 302 301 301 301 301 302 302 303 303 304 305 305 306 305 305 304 303 303 302 302 301 299 298 298 298 299 298 297 294 292 292 292 290 290
291 290 288 282 280 279 279 281 283 286 289 292 295 295 297 296 295 291 287 289 285 288 289 286 286 292 296 298 298 297 299 300 300 302 302 305 305 306 308 311 310 310 311 310 309 308 307 306 305 304 303 303 302 302 301 301 301 301 302 302 303 303 303 304 304 304 303 303 302 302 301 301 300 298 297 296 295 295 295 295 294 292 291 291 290 290
288 290 290 288 286 285 288 291 298 296 292 288 290 292 294 297 297 295 292 289 286 288 287 289 290 291 293 295 297 298 298 298 300 301 301 302 303 304 305 305 307 308 310 308 308 309 309 308 306 305 304 303 302 302 302 302 301 301 301 301 301 302 302 303 303 303 302 302 302 301 300 300 299 297 297 296 295 295 294 294 293 291 290 290 289 289
288 288 291 292 291 292 293 293 296 297 292 293 291 291 294 294 294 290 289 287 292 289 284 291 294 290 292 295 297 297 299 300 301 301 302 303 305 308 309 309 304 305 305 305 305 306 306 307 306 305 304 303 302 302 302 302 302 301 300 300 300 300 301 302 302 301 301 301 301 300 299 299 299 297 297 296 295 294 294 293 290 289 289 289 289 288
289 286 291 292 291 293 294 294 295 294 294 294 295 294 293 294 293 288 289 293 293 288 286 292 294 292 294 296 298 299 300 300 301 302 303 304 305 307 307 306 306 306 306 306 307 308 308 307 306 306 306 305 303 302 301 300 300 300 300 300 299 299 300 301 301 300 300 300 299 300 300 299 298 297 296 295 294 294 294 292 289 288 288 288 288 288
291 287 291 292 290 291 293 293 294 293 293 293 293 294 295 295 294 293 293 294 294 292 294 294 294 294 297 298 299 301 303 303 303 304 304 304 304 305 306 306 307 307 307 307 308 309 310 308 307 307 307 306 304 302 301 300 299 299 298 298 299 299 299 300 299 299 298 298 298 299 299 299 297 296 294 294 293 293 294 292 289 288 287 286 287 286
291 287 291 291 287 287 291 293 294 293 293 290 293 294 294 294 294 296 294 294 294 294 295 294 293 293 298 300 301 302 303 304 304 302 302 303 304 304 304 303 305 308 309 309 308 308 309 309 309 308 307 306 306 305 303 302 301 300 298 298 298 298 298 299 298 298 298 297 298 298 298 298 296 294 293 293 293 293 293 290 287 287 286 286 286 285
291 287 292 289 285 285 289 290 291 292 291 289 289 291 292 292 290 292 292 296 293 291 293 293 290 292 297 301 302 302 302 302 301 302 302 304 303 303 303 303 304 304 306 307 308 308 309 309 309 308 307 306 306 305 304 303 302 299 298 298 297 298 298 297 297 297 297 297 297 297 297 296 294 293 292 292 292 292 290 288 287 286 285 285 285 285
290 289 287 287 284 284 289 291 289 289 287 284 285 290 292 293 294 295 295 296 296 296 291 288 290 297 299 300 299 300 301 301 302 302 303 304 304 304 303 304 304 305 305 306 306 307 307 308 308 309 309 308 307 305 305 304 301 299 299 298 297 297 296 296 296 296 296 296 296 296 296 295 293 292 291 291 289 289 288 287 286 286 285 284 285 284
293 291 289 290 284 285 287 287 288 285 278 280 293 296 296 293 293 292 292 294 296 297 294 296 297 299 300 299 298 299 299 300 302 304 305 305 304 304 305 305 305 305 306 306 307 307 307 308 309 310 310 309 308 307 306 303 302 300 299 298 297 296 295 295 295 295 295 295 295 295 295 294 290 290 290 289 288 288 287 286 285 285 285 285 284 284
289 290 289 290 286 285 288 287 284 277 279 291 296 298 299 298 297 295 295 296 297 298 298 297 297 298 299 300 300 301 302 303 304 304 304 304 305 305 304 304 304 305 305 306 306 306 307 307 308 309 308 308 307 304 301 300 299 299 297 296 295 295 294 294 294 293 294 293 294 294 293 291 290 289 289 288 287 286 286 285 285 285 285 284 284 283
289 288 289 288 288 288 285 284 277 279 289 294 296 297 299 299 298 296 294 297 298 298 298 297 298 299 300 300 301 302 302 302 303 303 303 304 304 304 303 303 304 305 305 306 306 307 307 307 308 308 309 306 302 299 299 298 298 296 295 295 294 293 293 293 292 292 293 292 293 292 292 290 289 288 288 287 286 286 285 285 285 285 284 284 284 284
294 291 290 285 289 281 284 284 283 290 288 290 291 292 295 293 293 292 288 293 298 299 299 298 299 300 300 301 301 302 301 301 299 301 303 304 305 305 305 304 305 305 306 306 307 307 308 309 308 307 304 300 299 297 297 297 295 295 293 292 293 292 291 291 291 291 291 291 291 291 291 290 289 288 287 286 285 285 285 284 284 284 285 283 283 283
296 289 291 286 284 288 283 281 282 282 279 285 293 297 300 301 300 300 294 290 299 300 301 300 299 300 300 300 300 300 299 296 294 297 302 304 305 305 305 306 306 306 306 306 306 306 306 304 297 297 299 296 295 296 295 294 293 293 291 291 290 290 290 290 290 291 291 290 291 290 290 289 288 287 286 286 285 285 285 285 285 284 284 284 283 282
296 295 292 287 285 286 283 280 280 278 282 290 292 295 299 300 301 301 293 287 297 298 300 300 299 300 300 300 299 299 296 292 293 298 302 304 303 304 304 304 305 305 305 305 305 304 303 300 298 294 294 295 293 292 293 292 291 291 290 289 289 289 289 289 290 290 290 290 290 290 289 288 288 287 286 285 285 285 284 284 284 284 284 284 284 283
290 290 290 286 282 285 283 281 279 285 284 290 294 296 297 300 304 296 283 284 297 299 299 299 298 299 299 300 300 298 295 292 294 299 303 304 304 304 304 304 304 304 304 304 301 298 297 293 292 292 292 292 293 290 290 290 290 289 289 289 289 288 288 289 289 290 290 290 289 289 288 287 286 286 285 285 285 285 285 285 284 284 284 283 283 283
286 287 287 283 284 284 284 282 285 285 290 293 293 296 299 304 298 286 280 288 295 296 298 299 299 299 299 298 299 296 298 300 301 303 304 304 301 301 301 300 298 296 296 297 297 290 293 292 294 293 292 292 290 289 290 290 289 288 289 288 288 287 288 289 290 289 289 289 288 287 287 287 286 285 285 285 285 285 285 284 284 283 283 282 282 282
285 286 286 287 284 283 284 282 282 286 291 293 296 297 300 294 284 283 289 291 292 292 293 294 294 296 299 299 299 299 300 302 301 302 302 303 303 302 299 298 295 293 291 290 289 290 291 291 290 289 288 288 289 289 289 288 288 288 288 287 287 288 289 289 289 288 288 286 286 286 286 285 285 285 285 285 285 284 283 284 284 283 283 282 281 281
285 284 282 283 286 286 285 282 280 277 288 290 293 293 294 288 289 291 291 293 293 293 294 294 294 295 296 295 297 297 299 300 301 301 302 302 302 301 299 296 295 294 292 289 288 289 290 289 288 288 287 287 287 288 288 287 286 286 286 286 287 287 287 287 287 286 286 286 285 285 285 285 284 284 284 284 284 283 282 283 283 283 282 281 281 281
291 283 283 286 288 282 282 280 281 288 290 294 293 288 292 295 295 294 293 290 294 294 294 294 294 295 295 294 293 293 294 294 296 298 300 300 300 298 293 292 292 291 290 290 290 288 289 289 288 287 286 286 287 287 287 286 285 285 286 285 286 286 286 286 286 285 285 284 284 284 284 284 284 284 284 284 283 282 281 282 282 282 282 281 281 280
289 286 287 283 290 287 284 287 291 291 292 294 294 294 295 296 295 294 293 292 292 294 295 294 294 295 295 293 293 292 292 295 295 297 297 297 297 295 292 291 291 290 290 289 288 287 287 288 286 286 285 285 285 286 285 286 285 285 284 284 285 285 285 284 284 284 283 283 283 283 283 283 283 283 283 283 283 282 282 282 282 281 282 281 281 280
293 289 288 287 286 291 289 288 290 289 291 291 295 296 295 295 295 292 291 291 293 295 296 294 294 293 292 292 291 291 292 294 295 296 296 296 295 294 291 289 289 289 288 287 286 286 286 286 286 285 284 284 285 285 285 285 285 284 283 284 284 284 284 283 282 282 282 282 282 282 283 282 282 283 283 283 284 283 282 281 281 281 281 281 280 280
289 289 288 285 287 286 280 292 288 289 292 293 293 294 293 293 293 293 291 292 293 295 295 294 293 292 291 290 290 290 292 293 293 294 295 295 294 292 290 289 288 288 287 286 285 285 285 285 285 284 284 283 284 284 284 284 285 284 284 283 283 283 283 282 282 282 282 282 282 282 282 282 282 282 283 283 283 283 282 282 282 281 281 281 280 280
284 291 285 284 285 284 284 289 290 292 294 294 293 291 292 293 293 292 292 293 294 295 293 292 290 289 290 288 290 290 291 292 292 292 293 292 291 290 288 288 287 286 285 285 284 284 285 285 284 284 283 282 282 283 283 283 283 283 283 283 283 283 283 282 282 282 282 282 282 282 283 282 280 282 282 282 282 282 281 282 282 281 281 281 280 280
287 288 280 284 283 285 288 288 289 290 292 293 293 293 293 293 293 292 293 293 294 293 293 293 291 291 290 290 290 289 289 289 291 291 290 290 289 288 287 286 286 285 285 283 283 284 285 285 284 283 282 280 281 281 281 282 282 283 283 283 283 282 282 282 281 281 281 282 282 282 282 282 282 283 282 282 281 281 282 282 282 282 280 281 283 283
286 282 286 285 281 281 281 284 286 282 282 289 291 293 293 295 293 293 293 293 294 294 294 292 293 291 289 288 287 287 287 289 290 290 288 289 288 287 286 285 285 284 284 284 284 284 284 284 283 281 279 279 279 279 279 279 280 282 282 282 283 283 282 281 281 281 281 281 281 281 281 281 281 281 280 280 278 278 278 279 282 282 281 279 280 281
284 284 285 281 280 280 286 288 290 289 289 291 293 295 295 296 295 294 294 294 294 295 295 294 292 292 291 289 287 286 287 288 289 289 288 287 287 286 286 285 284 284 283 283 283 283 282 281 279 278 277 277 278 278 278 278 278 280 281 282 282 282 281 281 280 280 280 280 280 280 281 280 280 280 280 280 279 278 277 278 279 281 281 281 280 281
Wind_Speed
2 6 7 7 8 8 8 10 3 4 3 4 3 2 3 4 4 5 5 4 1 3 10 13 15 15 16 16 16 15 14 15 15 14 12 12 12 12 12 13 13 13 13 5 7 9 10 10 10 9 9 10 11 11 12 14 14 14 14 13 14 12 12 11 10 10 10 10 8 8 9 10 10 10 9 10 10 8 7 8 9 8 8 9 9 8
4 7 7 10 4 3 5 3 2 1 1 4 3 4 5 4 6 2 3 3 3 3 6 6 10 14 16 16 17 16 16 17 16 16 16 16 15 13 14 15 14 13 7 7 7 9 9 9 10 9 8 10 12 12 13 15 15 14 14 14 13 11 13 13 12 10 10 9 9 9 10 11 10 10 10 11 9 9 8 9 8 9 8 8 9 7
6 8 7 2 5 4 4 0 1 6 6 4 6 4 4 5 4 5 4 2 2 2 9 7 10 15 14 16 17 17 17 15 14 15 15 14 15 14 14 14 13 10 10 9 11 10 10 10 11 9 9 9 11 11 13 13 13 13 14 13 12 11 12 12 12 10 10 9 8 8 8 9 9 9 10 11 11 9 9 9 8 6 5 7 8 8
6 9 4 4 4 4 3 3 4 5 5 5 5 6 5 3 0 3 4 1 3 3 6 7 12 16 16 16 19 19 17 15 12 13 13 11 14 16 16 13 10 11 10 12 11 10 10 11 10 9 9 10 10 10 11 12 14 12 12 13 13 12 12 12 12 10 10 9 9 9 8 9 8 9 2 1 3 7 9 10 8 7 5 7 7 9
6 4 3 2 3 5 5 5 6 5 6 7 7 6 6 2 3 4 2 2 3 7 3 8 10 13 12 12 9 8 9 10 9 9 10 11 13 14 10 8 9 12 11 10 9 8 9 11 11 11 10 9 10 11 11 12 13 10 14 13 14 12 12 11 11 12 10 9 9 7 2 3 5 3 4 4 5 6 7 9 6 7 5 5 6 8
4 4 5 4 4 6 6 6 8 6 7 5 9 10 9 6 5 1 2 6 5 4 3 4 5 7 7 7 8 5 5 9 9 10 11 12 13 11 11 12 10 10 11 11 10 8 8 10 10 10 11 11 10 11 11 11 12 11 11 12 12 10 10 10 12 12 10 9 10 8 8 9 10 9 9 10 11 9 9 11 7 5 6 6 6 7
1 3 2 4 5 4 6 6 8 7 6 6 1 3 6 8 4 3 4 2 4 4 3 4 2 7 11 15 14 10 10 9 7 10 12 12 11 10 9 8 8 8 8 7 7 8 8 8 9 10 11 11 11 10 9 9 10 11 10 11 12 10 9 9 10 12 10 10 10 12 13 12 11 11 11 5 5 6 5 5 6 6 6 5 6 6
5 4 3 3 5 6 4 7 7 10 6 5 3 2 1 2 3 4 3 4 7 3 4 4 3 6 10 16 10 1 5 10 12 12 13 13 11 9 8 8 6 5 4 3 4 6 7 8 8 9 9 9 8 7 8 8 9 11 11 10 11 10 9 9 9 12 11 10 10 12 13 11 12 10 8 8 7 5 6 6 6 4 6 6 4 4
4 6 6 8 7 6 7 3 1 11 7 2 1 1 4 3 3 2 2 3 1 5 6 5 5 4 7 13 16 8 9 12 12 11 11 11 9 7 6 4 2 2 2 3 3 3 5 6 6 6 6 7 7 8 9 8 8 9 10 10 11 11 10 10 12 11 11 10 10 10 10 11 10 10 9 7 6 6 6 7 6 5 6 6 4 2
3 1 4 6 6 7 4 3 6 2 7 3 3 4 6 5 3 2 2 3 2 4 7 6 9 5 11 9 12 8 6 10 10 9 6 2 2 3 3 3 2 2 2 2 2 2 2 2 3 2 3 6 6 7 8 8 8 9 9 11 12 13 10 10 12 11 11 12 10 10 11 12 11 10 10 7 9 7 7 7 7 5 4 5 5 3
2 1 3 2 5 2 6 7 4 7 7 8 6 6 4 3 2 2 1 2 3 7 8 9 13 8 9 6 10 9 8 4 3 3 3 5 4 4 3 4 3 2 3 2 3 3 3 3 3 4 4 5 6 6 7 7 8 9 10 11 12 13 10 10 12 13 13 12 11 11 12 13 13 13 12 12 9 8 7 8 10 5 4 4 3 4
3 4 3 2 3 4 5 7 6 3 3 3 3 3 3 3 2 3 3 2 4 7 3 4 2 3 10 3 7 7 2 1 2 2 4 4 6 5 4 4 3 3 3 3 3 4 5 4 4 4 5 6 7 7 7 7 7 8 9 10 12 12 12 10 11 12 12 11 11 11 12 13 13 12 7 10 9 8 9 7 7 5 4 4 4 4
6 6 4 5 3 5 5 6 4 3 3 2 5 4 3 2 2 4 4 5 7 8 4 1 2 4 18 12 8 4 7 7 8 6 3 2 2 5 5 6 4 3 3 3 3 4 5 5 6 6 6 7 8 7 9 9 8 9 9 11 12 12 12 11 10 12 12 12 12 12 12 13 11 9 6 5 6 6 6 6 6 7 7 6 8 7
3 4 7 5 3 7 8 8 6 4 7 8 8 8 6 6 7 8 6 3 2 2 2 2 2 8 14 9 12 15 14 12 12 9 7 8 11 10 5 7 5 5 4 4 3 3 4 4 5 6 7 7 7 8 8 8 8 8 8 10 12 12 12 11 11 12 13 13 13 12 12 12 11 8 7 6 6 6 6 7 8 10 7 8 9 7
7 5 9 11 5 12 10 10 9 6 12 12 8 10 7 5 5 7 5 7 5 3 3 5 1 6 1 1 0 4 3 5 5 5 6 7 8 5 4 3 6 7 6 5 6 6 6 5 6 5 6 6 6 7 8 8 8 8 9 10 12 12 12 13 12 11 12 11 12 12 11 12 12 11 8 7 5 6 7 6 7 9 9 7 8 7
14 10 5 14 1 18 14 12 8 7 6 8 7 5 7 11 6 10 2 3 3 1 3 4 7 5 7 5 3 2 1 7 7 7 7 7 5 5 6 8 8 8 8 7 7 6 6 6 5 5 5 6 6 7 7 9 9 9 9 10 11 12 12 13 13 12 12 11 10 12 14 14 12 9 7 6 6 7 8 8 9 9 8 6 6 5
3 8 7 5 2 16 10 5 9 8 6 7 6 7 9 7 4 2 1 3 1 2 10 4 8 13 10 16 19 17 15 13 11 9 7 8 5 4 6 6 7 6 5 5 6 6 5 5 6 6 6 6 6 7 8 9 9 10 9 10 11 11 11 12 13 12 10 10 11 12 13 14 13 11 9 9 10 9 9 9 8 7 5 6 7 7
6 2 2 6 7 2 4 4 1 5 3 7 7 9 6 3 5 3 7 2 3 9 8 4 12 16 5 10 6 10 12 12 12 10 7 9 9 7 11 11 4 4 4 5 5 5 5 6 7 6 6 7 7 8 8 9 9 9 9 10 11 11 13 12 12 12 11 11 12 12 13 14 14 12 8 9 11 9 8 9 7 6 5 7 6 6
5 10 5 2 3 5 2 1 2 3 5 3 1 5 6 5 6 8 3 8 9 9 7 10 16 15 14 17 6 5 7 4 3 3 4 7 9 11 12 10 5 4 4 5 6 6 6 6 6 7 7 7 7 8 8 8 9 9 9 10 11 12 12 12 11 11 10 11 9 9 11 12 13 13 9 8 8 7 7 8 7 8 8 6 7 7
3 7 2 3 0 4 5 7 9 9 4 0 2 2 1 2 6 8 9 4 6 10 6 12 14 11 11 14 11 12 12 11 11 8 9 10 9 5 4 4 6 6 7 6 7 6 5 5 6 6 6 7 7 7 7 8 8 9 10 10 10 10 10 11 12 11 12 11 10 9 10 11 11 10 10 9 8 7 10 9 7 7 7 7 7 7
5 5 9 4 2 4 6 9 12 10 9 6 5 9 4 4 3 5 3 8 8 8 10 8 12 9 11 8 12 12 8 5 5 5 5 6 5 1 3 3 4 6 7 5 4 5 5 5 5 5 5 5 5 5 6 7 8 8 8 10 11 11 12 12 12 11 10 9 10 10 11 10 10 9 8 8 7 8 9 8 8 7 6 6 5 6
3 7 9 6 4 8 9 10 13 13 16 13 14 14 14 11 8 8 10 5 3 6 6 7 12 10 12 2 4 6 4 4 5 3 3 6 6 4 2 4 5 5 6 6 6 3 4 5 5 5 4 4 5 6 7 7 7 9 10 9 10 10 10 11 12 12 11 10 9 10 10 9 7 8 8 10 8 8 7 7 8 7 5 7 5 7
8 4 7 8 10 11 7 4 2 4 4 6 10 12 14 12 11 9 11 5 2 6 4 3 7 13 13 2 1 2 3 3 2 2 3 5 5 4 2 2 4 4 3 2 1 1 2 4 5 5 5 6 6 7 8 8 8 9 10 10 10 11 11 11 11 11 11 11 11 11 10 9 8 8 9 11 9 9 8 7 5 7 6 7 6 6
6 3 4 9 5 4 4 3 4 1 2 7 8 7 7 13 12 10 6 2 4 5 7 7 11 12 19 8 4 6 2 1 2 3 5 4 3 4 5 4 3 3 4 3 1 0 0 1 1 3 6 7 7 8 8 7 8 8 9 10 10 12 11 10 10 10 10 10 10 10 10 11 9 10 10 11 10 10 9 8 6 5 7 7 6 7
4 2 6 5 6 4 6 3 5 2 3 7 9 10 8 6 3 1 2 1 5 8 7 8 12 9 18 9 9 4 6 6 6 6 6 6 4 5 6 4 3 3 2 3 4 3 3 3 5 5 5 6 7 6 7 8 8 9 9 9 10 10 10 10 10 9 9 9 11 11 11 12 11 10 11 10 8 11 9 8 7 7 9 8 7 7
2 2 6 7 10 11 11 9 10 9 8 5 6 10 14 16 13 3 8 5 9 6 14 11 12 14 20 20 9 3 7 9 10 11 2 4 5 6 6 4 2 1 3 3 2 2 5 5 4 5 5 5 6 6 7 8 8 8 8 9 9 9 9 10 9 9 9 10 11 11 13 12 11 11 10 10 9 10 10 9 9 9 8 9 8 8
2 1 4 9 10 12 11 4 7 8 7 8 10 14 14 13 15 12 4 8 12 10 14 13 14 16 23 24 20 16 12 11 11 9 10 9 8 7 7 7 4 4 3 3 3 3 3 6 8 7 6 7 7 8 7 8 8 7 8 10 10 8 9 10 9 9 10 11 11 11 12 12 11 10 11 10 10 10 9 10 9 10 9 8 9 9
1 3 8 11 15 17 17 18 10 8 9 13 13 13 15 14 12 11 13 15 14 9 18 13 17 17 20 23 23 24 23 16 9 11 13 11 7 7 5 5 4 4 5 5 5 7 9 7 6 8 9 8 8 7 7 6 5 7 8 10 9 9 9 8 10 10 10 10 11 11 11 11 10 9 10 9 10 11 10 9 9 10 9 8 8 6
3 7 10 10 13 16 17 18 16 15 13 11 12 13 14 15 14 13 15 18 17 13 17 15 16 19 19 21 24 27 24 20 18 17 12 13 8 3 3 6 5 6 6 7 8 8 9 11 12 13 11 9 8 9 9 7 6 7 8 9 8 9 10 9 10 10 10 11 11 11 9 8 8 8 10 10 10 11 11 9 9 9 8 8 8 6
2 7 9 8 13 14 16 19 17 16 15 14 15 17 15 13 17 19 19 21 23 20 19 19 21 23 19 20 24 27 22 18 17 12 4 7 7 8 7 10 9 8 7 7 8 11 13 15 15 13 12 9 9 10 8 7 8 9 10 10 9 9 9 9 10 10 10 10 10 8 8 8 8 8 8 11 10 11 11 9 9 9 8 9 8 7
4 5 6 6 5 13 18 17 17 17 14 15 13 15 14 15 15 16 17 18 20 20 20 22 23 24 20 22 23 23 23 19 6 3 9 10 10 12 13 16 14 7 5 9 13 14 15 15 14 14 15 15 15 14 9 7 7 8 10 10 9 9 9 9 9 9 9 10 8 8 8 8 8 8 9 10 10 10 10 9 9 9 9 8 8 8
8 2 2 3 8 10 15 15 18 16 11 11 14 17 19 20 20 17 14 12 13 16 20 18 17 19 22 20 17 21 25 22 21 21 18 10 10 10 12 14 15 15 16 17 17 16 16 15 14 15 17 18 15 12 10 9 9 9 11 9 9 8 8 8 9 9 9 8 8 8 9 8 8 9 9 9 10 10 6 7 7 7 6 6 6 7
7 4 5 4 8 11 13 12 11 10 7 9 13 21 24 23 18 15 15 16 21 21 17 14 17 17 19 18 18 20 23 20 17 18 16 17 16 14 13 13 15 16 18 20 20 20 19 19 18 20 19 15 12 11 11 11 9 12 12 8 8 7 8 9 9 8 8 8 8 9 9 8 9 9 9 9 9 7 7 7 7 7 7 7 6 6
9 9 8 7 7 5 12 9 5 7 15 12 12 21 16 18 19 19 19 22 23 18 15 17 17 16 17 20 24 25 23 18 17 19 18 17 17 15 12 13 15 18 19 19 20 21 21 19 17 16 14 11 10 10 9 9 10 8 6 6 7 9 8 8 8 8 8 8 8 8 8 8 7 8 9 8 7 7 8 8 8 6 5 6 6 7
7 6 10 6 7 8 7 6 9 17 13 9 12 11 14 18 19 21 24 25 23 18 17 19 20 22 26 25 25 23 19 17 15 18 18 15 13 12 15 18 20 20 20 20 21 21 20 19 18 15 4 7 8 5 5 4 4 4 5 6 7 7 8 7 7 7 7 8 8 8 8 8 9 9 7 8 8 8 9 10 7 8 6 7 7 8
6 8 6 9 7 5 7 8 13 6 3 8 10 10 11 15 19 17 20 22 23 20 18 19 23 26 26 27 25 20 18 18 18 20 23 25 17 15 19 21 23 22 21 20 20 19 18 18 18 17 14 3 5 5 4 5 5 5 6 6 7 7 7 7 7 7 7 7 7 8 7 8 6 6 7 9 8 9 9 9 9 8 7 6 5 3
13 10 8 9 8 10 8 14 18 7 16 12 11 10 11 12 10 14 13 14 18 18 18 19 23 23 25 24 22 17 14 14 16 20 25 21 16 18 22 24 22 21 21 21 20 19 18 15 12 5 2 4 3 5 4 4 5 6 6 6 5 6 6 6 6 6 6 6 6 7 6 6 8 5 6 8 8 8 8 8 8 6 4 7 5 5
17 14 7 10 8 11 14 15 12 12 16 13 18 20 16 11 12 10 11 15 12 14 14 19 23 26 25 19 15 13 7 8 13 18 25 18 15 18 18 17 20 20 19 19 17 15 10 2 1 3 3 5 5 4 5 6 7 7 6 6 5 6 5 5 6 6 6 6 6 6 6 6 7 6 6 8 9 8 7 7 5 5 6 6 7 6
17 17 15 13 8 9 11 14 14 13 10 5 16 15 13 11 11 8 10 13 7 16 17 18 20 22 21 15 10 10 5 10 15 18 21 18 11 9 11 13 16 15 14 14 14 13 8 3 2 3 4 4 6 6 6 7 8 7 6 6 6 6 6 6 6 7 7 7 6 6 6 6 6 7 7 8 8 8 8 7 6 5 6 5 5 6
15 13 12 14 15 14 13 13 13 7 8 7 10 10 6 4 3 4 15 12 7 19 19 13 16 18 12 10 12 10 9 13 16 17 19 18 7 5 9 12 11 10 10 8 2 1 1 3 3 2 4 5 5 7 7 7 6 5 7 6 6 6 6 6 6 6 6 6 6 6 6 5 7 7 8 8 7 6 7 6 5 7 6 6 4 4
12 13 13 17 14 19 20 16 11 9 6 9 12 14 1 3 5 10 15 2 10 10 10 9 12 9 9 15 12 10 12 16 17 18 19 17 9 4 3 4 3 4 6 4 1 3 2 2 2 3 2 2 4 5 5 5 7 5 6 6 5 4 5 5 5 6 6 6 6 4 4 5 6 8 6 7 8 7 6 5 7 7 8 7 6 6
5 5 7 13 15 18 16 16 13 9 3 1 6 8 2 4 11 10 2 6 7 13 16 10 10 12 12 13 12 12 12 14 16 16 19 20 19 10 3 3 4 4 1 4 3 1 2 2 2 3 4 4 4 4 4 4 5 6 6 5 4 5 5 6 6 6 6 4 4 4 5 5 5 6 6 7 8 7 6 5 7 7 7 5 6 8
4 5 5 9 6 10 10 13 12 14 1 5 6 6 3 6 3 3 2 11 10 12 14 15 7 5 7 11 14 15 15 15 15 16 17 17 17 15 9 6 8 6 4 1 1 2 2 3 3 3 4 3 3 3 4 5 5 4 4 4 5 5 6 6 6 6 5 5 6 6 7 6 7 6 5 6 6 8 7 7 6 7 6 7 7 7
5 9 7 7 7 9 10 11 7 1 3 2 3 2 5 6 6 6 6 12 12 9 11 13 11 4 4 5 11 15 15 15 17 17 16 15 14 9 6 5 4 2 0 1 2 4 4 4 5 5 4 4 4 4 3 5 6 5 5 5 5 5 5 5 4 5 7 7 8 8 7 7 7 7 6 7 7 7 8 7 7 7 5 6 7 6
10 16 8 13 3 6 5 4 2 1 4 4 3 6 9 10 7 6 5 7 9 10 7 6 14 12 2 6 8 10 13 15 16 15 14 15 15 12 8 4 3 4 2 2 2 3 2 4 7 6 6 5 5 5 4 4 8 7 7 5 5 4 5 6 7 8 8 8 7 7 6 6 6 6 6 6 7 7 6 7 8 6 5 6 6 6
5 2 3 2 4 4 6 8 9 8 9 10 6 4 7 7 8 5 6 9 8 10 8 8 13 11 8 5 7 9 9 13 14 14 15 14 12 11 5 2 1 1 1 1 1 2 1 4 4 5 6 6 5 5 4 3 6 10 6 7 6 6 7 8 9 9 9 7 7 7 7 8 7 6 7 6 5 6 6 7 6 6 6 5 5 5
2 5 2 2 2 5 6 6 5 6 9 8 9 4 5 8 9 7 5 8 9 10 11 6 7 9 9 7 8 11 14 14 13 14 13 13 13 11 7 4 2 1 1 1 0 1 1 3 4 5 4 6 4 4 4 5 4 5 6 6 6 8 9 9 10 10 8 8 7 7 7 7 6 6 6 5 6 6 6 5 5 5 5 5 5 5
3 0 3 3 5 8 8 11 14 12 8 5 6 8 12 9 7 3 7 8 8 10 9 8 5 8 7 7 9 9 12 12 9 11 10 7 5 5 3 2 2 1 1 2 2 1 1 1 3 4 4 4 4 3 3 4 5 5 6 7 8 8 9 10 9 8 8 9 8 6 6 6 8 8 6 5 5 6 5 4 4 5 5 5 5 6
4 7 5 2 8 6 11 14 15 14 11 9 10 8 7 7 7 8 8 9 10 11 13 12 6 9 8 9 9 8 10 12 11 10 8 6 6 4 3 2 1 1 2 2 2 2 2 2 5 5 5 4 3 4 5 6 5 5 6 8 8 8 10 9 10 10 10 8 7 7 6 7 6 6 6 6 6 6 4 3 4 4 4 5 2 2
9 9 8 8 11 8 8 8 5 12 9 8 8 11 10 9 7 9 9 11 12 14 13 13 13 8 8 8 7 6 9 11 9 6 6 7 5 4 3 2 2 2 1 2 2 2 4 4 6 8 7 4 4 5 6 6 5 6 7 7 7 8 10 9 9 9 8 7 7 7 7 6 6 6 7 7 6 5 7 13 13 7 4 3 7 11
12 9 7 9 8 10 9 10 8 12 13 11 13 12 14 13 10 9 10 13 15 15 14 11 13 13 11 9 7 6 8 9 10 6 7 6 5 4 4 5 4 4 3 3 4 3 4 4 6 7 7 4 5 7 8 8 6 6 5 6 6 8 10 11 8 7 7 7 7 7 7 6 7 6 6 6 6 5 7 7 10 15 14 11 10 10
Wind_Direction
1 210 202 213 218 209 210 222 258 54 56 60 38 322 257 258 252 108 95 75 154 289 256 253 259 262 268 271 273 274 271 266 259 252 251 251 250 249 250 250 248 243 242 216 171 159 173 174 175 177 180 187 191 193 192 193 194 194 192 186 191 188 189 189 189 190 189 189 187 201 206 212 212 210 198 204 210 204 203 198 193 187 192 188 188 178
230 230 221 226 243 277 197 137 126 344 357 286 292 270 253 211 257 37 102 122 119 255 281 283 275 266 268 270 270 268 264 258 252 252 249 247 246 246 246 247 243 243 239 162 168 176 175 172 170 170 177 184 189 197 196 196 196 195 195 194 192 186 191 196 194 188 189 188 190 190 200 207 206 206 204 205 202 205 205 201 195 194 199 189 186 175
207 219 229 118 93 69 39 203 229 255 254 236 257 255 261 248 251 121 98 134 168 239 267 288 293 281 272 271 268 261 257 254 248 245 247 250 252 251 249 248 248 243 237 201 212 190 180 168 170 175 181 191 200 195 199 200 195 195 197 199 194 192 192 196 193 186 188 188 189 197 204 201 203 210 214 214 209 200 199 200 192 186 192 191 186 173
220 222 182 122 116 138 118 189 214 219 240 244 221 238 238 63 308 219 105 80 171 239 303 328 301 287 278 260 253 251 248 254 253 251 253 252 254 252 249 250 251 248 242 237 230 209 176 168 174 178 186 192 192 197 197 197 199 197 199 197 195 193 193 194 193 187 186 183 182 199 218 207 209 206 142 101 141 185 196 198 189 187 188 190 183 178
216 60 16 209 175 204 196 178 196 210 228 219 243 248 253 235 251 286 33 276 234 241 295 273 276 274 272 268 256 234 229 249 249 243 242 239 240 246 254 258 248 248 245 241 235 227 183 173 183 187 187 180 188 195 197 196 197 198 199 196 195 194 193 193 185 182 178 171 180 177 115 129 97 95 176 189 207 199 197 200 184 189 183 192 176 187
220 71 90 146 176 203 190 190 203 212 240 222 208 231 254 276 306 296 346 334 282 252 144 314 301 271 285 285 268 252 184 225 229 235 241 238 233 221 226 230 231 234 236 241 242 233 206 186 183 182 180 185 192 197 198 196 198 197 197 197 194 197 194 195 190 180 176 178 181 164 181 194 202 204 196 199 199 190 193 201 187 156 181 191 191 185
323 90 227 146 170 177 216 233 192 203 235 247 138 353 266 267 289 284 289 298 260 275 78 281 315 292 305 287 277 274 260 254 253 248 257 256 255 247 229 226 228 228 227 217 222 223 217 204 187 182 183 190 195 199 190 191 197 199 198 196 195 197 196 194 190 180 179 182 184 193 203 206 205 206 208 199 193 182 174 172 164 175 178 198 194 186
135 158 152 208 162 184 195 225 181 197 216 228 66 227 93 196 206 251 261 245 280 348 241 185 255 274 293 286 284 101 261 265 261 254 252 252 245 235 229 225 222 224 233 219 216 216 217 217 205 198 190 189 197 187 181 187 193 198 199 195 196 195 194 189 190 184 186 183 189 198 209 213 217 217 206 192 195 168 164 174 173 167 186 193 205 182
186 163 189 176 196 190 213 19 114 197 223 62 100 11 96 90 98 134 216 258 323 354 289 178 188 232 232 268 285 269 276 271 263 262 254 252 250 238 219 220 191 178 168 194 196 208 202 206 209 209 197 188 183 178 180 184 188 193 199 197 197 198 194 193 189 187 187 187 193 200 208 216 220 220 219 196 190 162 161 173 164 177 187 189 195 192
27 61 194 206 194 212 93 48 1 250 218 127 147 99 98 103 101 155 261 268 243 265 262 179 183 244 262 245 274 265 239 269 274 264 264 241 133 158 178 154 153 135 149 173 187 148 138 148 158 174 166 168 176 171 178 180 184 191 195 199 199 201 196 193 189 186 183 189 199 207 208 215 214 210 215 198 196 179 162 179 171 176 172 182 181 173
82 213 345 255 220 37 92 61 32 36 59 136 155 116 119 124 139 178 223 271 281 249 256 180 187 226 286 218 228 249 259 286 280 224 143 127 144 156 139 149 153 143 139 132 142 146 140 127 142 151 176 171 162 168 179 184 186 189 194 198 202 202 199 195 192 190 188 191 200 210 211 213 214 210 211 210 198 173 165 189 193 170 173 163 163 172
158 119 175 175 68 132 116 86 55 17 117 175 156 173 182 213 187 230 215 167 240 254 81 6 259 256 253 204 211 224 33 133 230 184 143 128 131 140 146 144 137 156 138 137 146 146 155 158 172 173 188 184 174 171 182 185 187 191 196 197 199 202 202 198 198 194 188 190 200 209 213 216 218 215 191 202 195 177 177 174 181 166 164 170 161 162
204 217 134 111 303 166 159 126 81 108 198 208 178 195 217 229 165 227 183 216 210 248 124 36 295 285 246 230 257 285 276 260 231 232 254 276 154 150 153 143 162 170 175 179 169 160 171 181 171 184 187 177 182 185 186 186 186 190 195 197 201 204 201 203 195 196 196 195 200 207 213 219 220 221 192 185 193 186 167 170 171 177 191 186 194 198
215 114 159 147 127 233 206 178 140 171 191 195 196 186 196 233 227 242 224 221 275 78 253 85 115 254 275 294 227 237 229 242 254 259 262 262 265 267 185 159 168 186 201 216 210 209 218 222 206 192 184 183 183 186 185 186 186 189 192 196 201 203 200 202 198 196 198 203 204 204 209 216 217 219 208 190 188 177 173 183 179 190 185 192 199 184
222 216 210 151 222 166 210 222 184 182 175 199 206 196 209 223 230 243 220 230 232 267 106 234 148 245 229 7 7 235 265 267 288 306 301 288 282 290 287 163 185 200 213 215 224 229 232 224 207 196 190 184 182 180 181 183 187 189 194 197 198 201 200 201 200 197 201 203 207 207 207 214 218 219 207 194 189 173 182 187 183 191 195 188 194 187
217 244 133 172 151 160 192 215 215 178 174 196 212 228 239 234 239 259 333 338 324 351 210 170 231 259 231 24 229 205 234 266 262 262 252 257 248 246 239 238 234 225 224 226 227 226 217 205 191 185 184 186 182 181 178 186 187 191 195 195 199 199 199 200 202 206 203 207 209 215 219 219 216 216 196 188 186 195 194 200 201 201 193 180 174 172
147 228 116 115 151 177 187 194 203 182 212 168 163 211 207 27 235 267 116 104 62 293 259 223 263 258 264 264 247 241 235 221 208 216 239 265 273 248 251 243 224 212 206 221 225 230 207 179 185 184 180 180 182 184 187 188 190 191 191 193 197 199 202 203 204 207 202 203 210 217 220 221 219 212 188 190 194 190 189 201 205 201 186 187 192 190
238 174 8 163 190 131 19 336 288 29 351 113 211 208 59 29 0 228 248 169 212 242 261 215 244 274 295 292 96 208 222 247 255 249 213 232 246 257 271 267 204 167 208 229 233 217 201 187 181 176 179 181 182 185 187 190 189 192 194 194 194 197 201 202 201 204 203 203 211 214 216 220 224 223 201 195 195 191 177 197 196 197 188 192 184 172
189 250 169 294 40 103 61 71 229 115 20 321 233 3 186 207 212 215 243 240 240 235 260 247 251 258 254 261 259 112 158 194 209 215 214 213 209 228 241 260 295 265 209 200 212 207 197 192 183 178 176 179 184 187 188 187 188 190 196 196 199 200 201 199 200 200 203 206 209 213 214 217 221 224 210 197 193 182 176 178 181 188 192 177 178 162
169 233 180 333 202 133 159 177 207 195 143 209 335 234 344 330 238 201 202 237 240 255 239 259 250 255 243 252 275 271 269 271 279 281 275 275 268 230 220 238 238 250 227 190 199 198 194 181 174 169 168 175 181 184 189 187 188 195 197 198 203 205 202 202 200 196 202 204 206 208 215 219 223 215 209 197 191 192 200 204 193 182 185 180 159 163
223 158 253 115 308 145 187 196 217 176 171 188 222 225 182 216 23 345 263 219 220 241 243 265 266 249 254 254 259 267 267 279 293 292 304 307 298 257 154 232 244 244 261 256 197 183 178 156 148 149 157 160 166 179 183 190 195 197 198 202 202 202 202 203 201 197 201 200 208 208 209 216 214 205 201 190 188 189 199 200 194 194 182 149 161 151
212 180 227 132 181 207 225 197 209 204 187 186 191 208 203 190 203 218 244 210 239 229 243 244 258 277 266 335 310 307 318 317 37 358 324 309 311 312 192 187 210 236 243 255 266 220 143 145 150 149 146 145 164 185 190 193 195 200 203 203 200 203 208 203 201 196 192 198 206 211 214 215 215 203 186 203 202 202 198 197 199 192 160 164 155 169
208 206 219 199 198 207 201 61 16 26 324 246 212 217 207 208 199 201 229 204 156 237 336 281 307 266 264 90 24 357 335 31 33 354 288 276 286 288 272 253 200 202 222 245 269 104 129 158 160 160 169 179 192 194 191 193 201 204 204 201 201 201 207 206 203 197 194 195 200 204 206 209 199 187 195 198 203 201 202 201 171 167 168 173 171 173
66 226 217 239 223 93 85 117 73 7 297 271 255 250 228 221 213 225 237 271 227 182 212 235 244 270 278 254 319 282 126 170 228 214 244 269 299 298 274 257 264 209 200 230 249 316 45 300 166 159 176 187 196 200 195 198 204 207 208 205 201 203 202 201 203 198 196 197 200 201 205 207 200 190 192 204 206 212 205 195 166 165 182 185 170 181
184 192 222 222 229 209 187 150 223 142 214 236 227 222 233 253 257 323 53 70 256 224 233 227 243 249 267 276 249 235 178 194 223 222 207 238 244 254 257 248 215 218 201 207 217 219 208 218 228 219 200 197 199 194 195 201 205 208 210 206 205 204 198 199 200 196 196 196 199 203 207 208 202 189 189 193 195 206 203 197 186 179 188 183 181 187
214 208 175 204 217 221 216 207 217 196 204 212 238 243 225 217 211 154 226 199 240 229 239 232 247 254 272 277 255 163 223 227 222 244 201 212 244 265 276 271 314 10 252 263 248 238 237 225 226 239 223 210 207 200 200 202 206 209 217 215 207 199 192 198 198 195 190 193 198 204 206 206 200 192 186 185 181 189 194 196 197 189 190 188 189 189
167 284 212 209 223 233 241 264 61 118 134 193 212 220 226 227 221 217 233 234 228 237 243 237 248 261 261 268 277 276 248 225 240 231 228 225 222 239 253 268 265 268 276 272 280 267 266 247 238 231 223 219 209 204 201 201 196 205 212 218 209 200 196 195 192 196 196 196 200 202 204 203 201 194 192 186 186 187 190 196 192 191 187 182 190 189
85 240 225 233 235 243 252 258 257 164 180 200 211 218 217 216 212 211 215 229 228 247 251 239 236 243 254 267 274 273 270 263 243 229 245 249 225 203 214 241 246 249 257 240 221 237 246 252 258 247 230 217 214 205 208 196 189 209 212 215 204 199 200 196 189 195 200 198 201 205 204 202 200 194 189 186 184 188 195 193 182 179 181 178 184 174
143 238 238 249 261 263 268 273 275 283 275 256 227 216 214 213 215 212 224 233 231 230 244 245 245 244 249 256 264 265 267 273 277 274 262 241 241 149 237 256 264 258 255 238 235 230 216 231 243 239 230 213 202 210 209 185 185 208 224 217 198 195 205 194 188 196 199 201 205 207 201 198 197 194 189 185 182 187 192 187 182 179 179 183 188 181
145 234 252 241 261 268 269 266 266 264 268 270 267 265 254 225 210 211 221 225 227 236 243 252 259 258 256 256 259 265 275 278 283 291 265 225 215 239 236 253 239 229 233 245 251 251 241 239 232 225 228 211 208 220 210 188 185 199 213 214 197 196 204 194 194 193 199 205 207 202 196 194 187 186 176 181 190 190 191 185 179 177 180 182 182 178
152 232 212 229 244 261 260 264 270 262 259 265 265 265 260 258 253 222 220 227 234 243 246 248 251 259 258 254 262 275 278 280 289 212 251 232 230 233 245 257 260 243 234 245 256 255 256 252 246 240 235 230 217 210 203 196 184 188 211 214 194 196 198 196 193 193 198 205 199 194 196 197 184 176 182 185 185 190 191 172 165 175 179 179 177 166
158 257 94 184 231 243 253 252 259 261 256 257 263 258 256 249 241 238 232 221 225 235 240 244 251 255 261 265 268 269 272 274 274 276 275 262 243 233 238 249 258 263 260 257 255 256 256 257 255 247 243 240 231 209 196 196 191 191 215 205 192 188 181 195 198 193 200 198 190 191 194 194 179 180 182 178 185 188 182 167 171 179 175 173 173 170
174 183 198 184 230 238 253 239 248 265 266 241 237 242 238 238 242 244 237 229 224 225 235 235 239 244 257 267 267 265 264 272 277 277 278 270 266 260 246 247 258 257 259 260 259 257 259 258 258 258 252 242 221 213 206 205 197 209 211 192 184 163 181 191 193 192 198 198 189 193 192 191 184 181 177 175 168 173 170 168 167 172 168 174 175 163
184 191 213 184 236 233 246 253 247 255 243 233 220 232 229 233 231 234 239 234 231 214 227 233 250 256 260 262 259 257 260 263 269 269 267 271 277 276 262 260 260 259 257 258 258 258 257 257 255 255 251 231 214 211 205 190 201 207 187 172 161 171 181 183 188 190 192 193 191 188 187 185 173 176 171 164 165 165 168 168 174 162 156 163 158 169
193 206 233 220 233 238 249 247 245 237 236 232 239 239 230 235 236 234 235 238 239 233 233 240 247 250 250 252 258 262 268 276 269 272 276 268 269 277 273 269 264 259 256 257 257 258 261 262 261 256 189 202 195 162 134 148 157 142 147 164 167 172 171 181 180 188 190 191 190 185 182 176 169 170 164 164 161 161 167 170 151 165 163 167 170 174
215 205 216 232 232 254 249 228 247 230 157 214 250 244 232 231 232 235 243 245 246 245 240 234 235 243 247 251 254 258 270 275 276 272 270 268 265 267 266 261 259 259 261 261 261 262 262 262 260 254 245 180 131 143 144 155 147 159 174 163 168 164 171 172 179 185 186 189 189 187 181 169 168 162 150 152 153 160 164 161 161 136 153 159 157 139
226 232 219 241 202 238 228 240 247 310 297 275 271 244 214 216 207 213 242 242 236 237 236 241 244 241 245 249 257 266 269 273 275 274 265 262 263 249 251 258 260 263 263 264 264 264 263 264 271 289 52 102 118 116 144 136 145 166 157 159 161 153 160 164 174 184 183 182 183 180 174 155 157 158 142 152 154 162 163 161 159 149 127 149 148 146
222 228 196 235 222 218 236 250 254 247 247 242 237 249 243 227 229 217 227 251 243 242 229 237 241 249 252 249 249 253 254 266 269 268 270 267 251 253 250 255 260 261 262 264 268 267 272 308 72 87 107 115 134 141 138 151 160 161 150 147 144 145 158 165 179 179 177 180 176 169 169 161 161 155 149 152 160 161 160 157 144 136 150 147 159 164
214 216 224 227 236 213 221 233 239 241 241 230 256 252 252 246 240 244 247 254 221 256 241 238 246 250 253 260 262 255 227 246 252 259 270 274 267 259 260 249 256 261 261 260 261 264 249 205 148 125 134 155 161 154 151 155 153 146 143 143 148 155 162 175 178 175 173 173 168 165 160 147 151 151 152 158 161 159 154 156 149 140 144 148 134 143
210 209 212 227 226 235 241 238 239 228 259 252 273 272 296 279 250 217 253 258 210 242 251 251 253 262 283 275 259 238 215 245 253 263 269 274 292 256 250 261 264 269 271 272 318 27 67 87 102 151 171 188 167 132 151 147 145 139 141 146 146 159 172 173 170 165 163 160 157 152 142 144 150 151 153 155 149 147 144 134 121 134 132 136 130 121
214 220 215 223 225 232 234 247 258 255 256 265 268 278 51 154 185 230 238 350 354 327 329 312 294 284 239 253 248 249 224 239 253 264 273 282 284 267 273 306 314 349 326 348 340 84 120 154 197 214 178 128 112 128 140 143 127 137 133 133 144 164 160 154 147 148 148 143 138 130 131 135 146 143 140 142 140 136 131 130 134 135 141 142 140 139
263 240 227 220 225 230 232 241 242 268 260 208 280 334 90 134 228 244 359 316 302 330 321 329 338 343 319 274 264 254 256 252 255 261 268 272 273 274 228 253 291 286 56 36 53 134 147 141 117 85 76 79 116 127 137 131 128 124 126 134 140 141 133 131 135 134 128 124 115 111 110 110 110 118 122 123 127 127 116 116 124 135 136 124 132 142
244 242 221 221 228 232 229 240 244 243 309 56 337 306 146 228 309 360 301 320 333 309 316 312 314 320 338 321 316 316 312 301 283 271 267 267 273 275 266 246 243 245 230 154 187 210 165 130 125 111 101 101 115 119 122 121 116 104 112 113 115 112 117 120 119 112 106 103 105 108 107 109 112 111 112 119 124 123 117 121 121 128 133 134 134 131
167 258 249 243 191 249 230 228 237 83 104 356 37 226 323 300 337 335 354 311 313 314 307 310 304 294 309 284 292 301 302 305 305 304 302 300 299 316 351 357 344 341 128 194 182 169 179 142 125 117 108 102 93 88 90 115 111 112 107 104 102 99 98 101 97 94 99 95 99 104 104 109 111 111 116 121 118 118 125 131 129 130 128 135 138 132
163 238 238 261 184 220 255 274 103 126 301 277 224 243 245 280 297 297 290 275 287 295 300 279 295 299 209 267 273 269 287 288 289 291 293 296 302 307 302 279 250 267 257 215 172 148 184 151 139 128 117 105 97 100 97 116 124 121 114 110 111 111 103 100 101 101 96 99 100 97 100 101 103 108 111 114 122 122 118 120 131 128 126 132 130 135
329 54 40 335 292 311 264 251 277 283 272 280 251 226 275 272 273 268 265 282 275 281 289 275 287 294 287 237 264 275 258 272 281 287 289 288 288 291 290 283 269 302 357 37 81 180 126 101 111 125 121 113 108 106 107 115 136 132 129 127 124 117 116 115 111 106 108 105 100 105 107 103 98 101 108 109 111 111 121 130 135 129 135 131 127 128
253 28 327 252 295 283 271 138 177 251 288 306 306 261 223 225 250 268 243 225 252 275 283 265 267 283 288 279 257 267 278 279 275 276 276 283 286 283 279 261 254 244 253 242 216 81 88 138 127 129 117 116 113 103 106 109 105 111 120 122 119 121 122 119 117 114 114 113 108 111 114 113 116 113 111 110 107 113 122 128 121 124 131 134 135 137
237 232 309 287 283 261 287 331 327 322 291 262 274 300 297 299 294 237 230 251 265 279 279 269 279 275 275 264 249 253 265 277 282 282 284 280 281 302 295 272 226 129 104 79 92 48 49 92 69 96 92 92 92 94 96 98 102 111 111 113 118 122 120 119 121 115 111 118 120 119 120 113 112 115 116 110 110 116 118 114 124 130 136 149 150 150
317 344 268 277 283 268 284 286 285 279 273 276 267 262 267 277 286 285 279 284 291 291 291 283 210 248 263 271 291 288 284 283 276 271 273 276 272 265 257 235 202 163 131 118 125 97 158 134 101 98 84 77 64 70 66 74 87 104 103 115 125 129 126 123 120 118 118 119 119 113 114 119 123 117 112 109 87 66 65 120 135 113 73 36 50 126
259 240 260 272 270 274 268 280 306 298 303 293 300 299 294 282 269 277 284 287 288 289 281 273 276 229 214 244 261 273 271 277 279 267 265 261 250 231 208 183 160 133 112 128 131 114 90 95 103 116 110 106 100 97 97 108 110 109 123 125 130 132 127 122 116 122 120 121 119 124 125 123 115 112 114 111 105 97 74 55 57 62 94 89 65 61
247 245 254 253 255 265 281 273 273 280 281 281 285 284 286 294 286 275 273 278 286 286 287 274 278 278 255 235 211 227 253 263 277 273 261 253 239 210 190 179 174 175 165 154 130 114 111 104 109 107 121 131 122 115 120 120 122 119 125 132 136 136 134 136 131 126 131 130 136 137 130 123 124 126 117 118 116 104 102 93 69 70 75 82 80 82